SCP
0 0 0 0 0 0 0 0 0 0 0 0 0 0 0 0 0 0 0 0 0 0
0 0 0 0 0 0 0 0 0 0 0 0 0 0 0 0 0 0 0 0 0 0
0 0 0 0 0 0 0 0 0 0 0 0 0 0 0 0 0 0 0 0 0 0
0 0 0 0 0 0 0 0 0 0 0 0 0 0 0 0 0 0 0 0 0 0
0 0 0 0 0 0 0 0 0 0 0 0 0 0 0 0 0 0 0 0 0 0
0 0 0 0 0 0 0 0 0 0 0 0 0 0 0 0 0 0 0 0 0 0
0 0 0 0 0 0 0 0 0 0 0 0 0 0 0 0 0 0 0 0 0 0
0 0 0 0 0 0 0 0 0 0 0 0 0 0 0 0 0 0 0 0 0 0
0 0 0 0 0 0 0 0 0 0 0 0 0 0 0 0 0 0 0 0 0 0
0 0 0 0 0 0 0 0 0 0 0 0 0 0 0 0 0 0 0 0 0 0
0 0 0 0 0 0 0 0 0 0 0 0 0 0 0 0 0 0 0 0 0 0
0 0 0 0 0 0 0 0 0 0 0 0 0 0 0 0 0 0 0 0 0 0
0 -0 0 0 0 0 0 0 0 0 0 0 0 0 0 0 0 0 0 0 0 0
0 0 0 0 0 0 0 0 0 0 0 0 0 0 0 0 0 0 0 0 0 0
Wind_Speed_500mb
79 83 87 89 91 91 87 88 92 96 95 89 85 83 78 75 70 66 64 61 56 51
69 77 81 83 85 85 80 79 82 85 90 92 89 86 82 78 75 71 68 64 60 56
61 69 74 77 80 82 81 82 82 83 86 91 90 88 85 83 79 77 72 69 66 61
50 60 69 75 78 78 78 83 85 84 82 83 87 89 89 88 84 82 77 74 70 64
45 51 63 74 78 81 80 80 85 84 84 83 85 90 94 93 91 88 84 79 74 70
64 61 65 70 71 77 81 83 85 87 88 86 89 88 93 96 94 89 86 81 77 73
72 76 81 84 88 84 82 85 89 91 87 86 88 88 90 97 95 92 87 83 79 74
70 63 67 77 91 94 87 88 88 84 89 90 92 92 89 94 96 95 91 86 80 76
72 68 67 68 74 88 93 90 86 97 94 94 94 89 86 93 94 94 92 89 82 76
63 64 64 64 78 91 96 95 96 97 95 95 92 85 86 90 90 93 93 88 82 76
70 60 59 61 70 84 92 95 94 92 93 91 90 83 87 90 90 91 88 85 80 72
82 71 56 56 63 72 84 89 88 90 90 89 88 84 90 93 92 93 89 85 77 70
76 81 69 57 53 59 71 79 83 86 85 85 86 85 95 99 92 94 90 84 77 73
72 72 75 63 53 52 57 69 79 82 85 88 78 85 93 100 95 93 89 86 81 75
Wind_Direction_500mb
242 240 239 236 235 237 235 234 232 231 232 232 233 232 232 233 237 238 239 240 241 244
245 242 236 234 235 237 239 239 238 236 235 234 232 231 232 233 235 237 237 239 240 243
249 244 242 239 237 237 238 238 236 235 234 233 232 232 232 232 233 234 235 236 238 241
262 250 246 243 244 243 241 240 241 240 238 235 233 232 232 232 232 233 232 234 236 239
266 261 252 249 246 243 242 243 243 242 241 238 235 233 232 232 231 231 231 232 233 236
285 276 269 261 264 255 250 248 246 244 242 240 238 235 234 233 232 232 233 233 233 235
287 285 282 275 269 263 256 251 247 244 244 243 240 237 234 232 231 231 232 232 232 233
289 282 278 273 266 258 251 252 252 251 249 244 239 236 233 231 231 229 228 228 229 231
299 283 273 275 269 256 253 253 253 247 246 242 239 236 233 233 230 227 227 227 227 229
319 291 274 269 264 258 256 250 248 244 242 239 237 236 232 230 229 227 226 226 226 227
339 323 298 281 270 262 254 250 246 245 242 238 236 230 227 227 225 224 225 227 226 225
332 335 326 302 287 272 258 250 246 243 237 235 233 225 224 223 219 220 221 223 222 221
323 324 331 322 301 281 267 257 247 239 235 232 230 221 221 222 217 216 217 219 219 220
311 314 318 321 313 295 276 261 248 238 232 227 223 220 221 223 216 216 215 216 216 216
Wind_Speed_850mb
79 83 87 89 91 91 87 88 92 96 95 89 85 83 78 75 70 66 64 61 56 51
69 77 81 83 85 85 80 79 82 85 90 92 89 86 82 78 75 71 68 64 60 56
61 69 74 77 80 82 81 82 82 83 86 91 90 88 85 83 79 77 72 69 66 61
50 60 69 75 78 78 78 83 85 84 82 83 87 89 89 88 84 82 77 74 70 64
45 51 63 74 78 81 80 80 85 84 84 83 85 90 94 93 91 88 84 79 74 70
64 61 65 70 71 77 81 83 85 87 88 86 89 88 93 96 94 89 86 81 77 73
72 76 81 84 88 84 82 85 89 91 87 86 88 88 90 97 95 92 87 83 79 74
70 63 67 77 91 94 87 88 88 84 89 90 92 92 89 94 96 95 91 86 80 76
72 68 67 68 74 88 93 90 86 97 94 94 94 89 86 93 94 94 92 89 82 76
63 64 64 64 78 91 96 95 96 97 95 95 92 85 86 90 90 93 93 88 82 76
70 60 59 61 70 84 92 95 94 92 93 91 90 83 87 90 90 91 88 85 80 72
82 71 56 56 63 72 84 89 88 90 90 89 88 84 90 93 92 93 89 85 77 70
76 81 69 57 53 59 71 79 83 86 85 85 86 85 95 99 92 94 90 84 77 73
72 72 75 63 53 52 57 69 79 82 85 88 78 85 93 100 95 93 89 86 81 75
Wind_Direction_850mb
242 240 239 236 235 237 235 234 232 231 232 232 233 232 232 233 237 238 239 240 241 244
245 242 236 234 235 237 239 239 238 236 235 234 232 231 232 233 235 237 237 239 240 243
249 244 242 239 237 237 238 238 236 235 234 233 232 232 232 232 233 234 235 236 238 241
262 250 246 243 244 243 241 240 241 240 238 235 233 232 232 232 232 233 232 234 236 239
266 261 252 249 246 243 242 243 243 242 241 238 235 233 232 232 231 231 231 232 233 236
285 276 269 261 264 255 250 248 246 244 242 240 238 235 234 233 232 232 233 233 233 235
287 285 282 275 269 263 256 251 247 244 244 243 240 237 234 232 231 231 232 232 232 233
289 282 278 273 266 258 251 252 252 251 249 244 239 236 233 231 231 229 228 228 229 231
299 283 273 275 269 256 253 253 253 247 246 242 239 236 233 233 230 227 227 227 227 229
319 291 274 269 264 258 256 250 248 244 242 239 237 236 232 230 229 227 226 226 226 227
339 323 298 281 270 262 254 250 246 245 242 238 236 230 227 227 225 224 225 227 226 225
332 335 326 302 287 272 258 250 246 243 237 235 233 225 224 223 219 220 221 223 222 221
323 324 331 322 301 281 267 257 247 239 235 232 230 221 221 222 217 216 217 219 219 220
311 314 318 321 313 295 276 261 248 238 232 227 223 220 221 223 216 216 215 216 216 216